Wind_Speed
7 8 8 7 8 9 9 9 10 10 10 11 10 10 10 10 9 9 9 9 9 9 8 7 6 6 6 6 6 5 5 4 4 3 2 2 2 1 1 1 2 2 2
7 7 7 7 8 9 9 9 10 10 10 10 10 10 10 10 9 9 9 9 9 8 8 7 7 6 6 6 6 5 4 4 3 3 2 2 2 2 2 2 2 3 3
7 7 8 8 8 8 9 9 10 10 10 11 11 10 10 10 9 9 9 9 8 8 8 7 7 7 6 5 5 4 4 3 3 3 3 2 2 2 2 2 2 2 2
8 8 8 9 8 8 8 9 10 10 10 11 11 10 9 9 8 9 9 8 8 7 7 6 6 7 6 5 4 3 3 3 3 2 2 2 2 2 2 2 2 1 2
8 8 9 9 9 9 9 10 10 10 10 11 10 9 9 8 9 9 8 8 7 7 7 6 7 6 5 5 4 3 3 3 2 2 2 2 2 2 2 2 1 1 2
8 8 8 8 8 9 9 10 10 10 11 10 9 9 8 8 9 9 7 7 7 6 6 5 6 6 5 4 3 3 3 2 2 2 2 2 2 2 2 2 1 1 2
7 7 8 9 9 10 9 9 10 10 10 10 9 9 8 8 8 8 7 7 6 6 6 5 5 5 4 4 4 3 3 3 3 2 2 2 2 2 2 2 1 1 2
9 8 9 9 9 10 10 9 10 9 9 8 8 8 8 8 7 7 6 7 6 6 6 5 4 4 3 4 3 3 3 4 4 3 2 2 1 1 1 2 2 2 2
10 10 10 9 9 9 9 9 9 9 8 8 7 8 8 7 7 7 6 6 6 6 5 5 5 3 3 3 3 3 3 3 3 3 2 2 2 1 1 2 2 3 2
10 10 10 9 8 8 8 8 9 9 8 8 8 7 7 7 6 6 6 6 5 5 5 5 4 4 3 3 3 2 3 3 3 2 3 3 2 2 2 2 2 3 3
9 9 9 8 8 7 8 8 8 8 8 8 8 8 6 6 6 6 6 5 5 5 5 4 3 3 3 3 3 3 3 3 2 2 3 3 2 2 2 2 3 3 4
9 9 8 8 7 7 7 7 7 7 7 7 8 7 7 6 6 6 5 5 4 4 4 4 3 3 3 3 3 2 2 3 2 2 2 2 2 2 2 2 3 3 4
9 8 8 7 7 7 7 7 6 6 6 6 6 7 6 6 6 5 5 5 4 4 4 4 3 3 3 3 2 2 2 2 2 2 2 2 2 2 2 3 3 3 3
8 8 7 7 7 7 7 7 6 6 7 6 6 6 5 5 6 6 6 5 4 4 4 4 4 3 3 2 2 2 1 1 1 2 2 2 2 2 3 3 3 3 3
7 7 7 7 7 7 7 6 6 7 7 6 6 5 5 5 6 5 5 5 5 4 4 4 3 3 2 2 2 1 0 0 1 1 1 2 2 2 3 3 3 3 2
6 6 6 6 6 6 6 6 6 6 6 6 5 5 5 5 5 3 3 3 3 3 3 3 3 2 2 2 1 1 0 0 1 2 2 2 3 3 3 3 3 3 3
6 5 5 5 5 5 5 5 5 4 4 4 4 4 4 4 3 2 2 2 2 2 2 2 2 2 1 1 0 0 1 2 2 3 3 3 3 3 4 4 4 4 4
5 5 5 4 4 4 4 5 4 4 3 3 3 3 3 2 2 2 1 1 1 1 1 1 1 1 0 1 1 2 2 3 3 3 3 3 3 4 4 4 4 5 5
3 3 4 3 3 4 3 4 4 4 3 3 2 2 1 1 1 1 1 0 0 1 1 1 1 2 2 2 3 3 3 3 4 4 4 4 5 5 6 5 6 6 6
3 2 2 2 2 3 3 3 3 3 3 2 2 2 1 1 2 2 2 2 2 2 2 2 2 2 3 4 4 4 5 5 5 6 7 7 7 7 7 7 8 8 8
2 1 1 1 1 1 2 2 2 2 2 2 2 3 3 2 3 3 3 3 3 3 4 4 4 4 4 5 5 6 6 6 7 7 8 8 8 8 9 9 10 11 11
2 2 2 1 1 1 2 2 2 2 3 3 4 3 4 4 4 4 4 4 5 5 5 5 6 6 6 6 6 7 7 8 8 8 8 9 9 9 10 10 11 12 13
3 3 3 3 2 2 3 3 3 3 3 4 4 4 4 4 5 5 5 5 5 6 6 7 7 7 7 7 8 8 9 9 10 10 10 11 12 12 12 12 12 13 13
4 4 4 4 4 4 4 4 4 4 5 5 5 5 5 5 5 5 6 6 6 7 7 8 8 8 9 9 9 10 10 11 11 12 12 13 14 14 15 14 14 14 15
7 6 5 5 5 5 6 6 6 6 6 6 6 6 6 6 6 6 7 7 7 8 8 9 9 10 11 11 11 12 12 13 13 14 14 14 15 15 16 16 15 15 16
9 9 8 8 8 7 7 7 7 7 7 7 7 7 7 7 7 7 8 9 9 10 10 10 11 11 12 12 13 14 14 14 15 15 16 16 16 16 17 16 16 16 17
Wind_Direction
92 104 112 114 119 120 123 124 124 123 124 124 122 122 122 121 119 119 122 123 122 120 119 122 127 130 133 134 133 133 129 120 119 114 114 109 98 66 54 85 105 132 133
95 104 109 116 119 121 123 124 128 125 126 126 123 121 118 120 118 118 118 120 123 123 122 125 130 130 136 140 136 132 137 129 120 110 114 125 97 71 67 92 102 131 134
99 104 111 116 119 123 125 125 127 126 125 128 126 122 118 118 117 116 119 122 125 124 122 129 137 136 138 143 140 135 140 129 115 115 121 123 88 69 72 85 94 132 147
101 103 110 116 121 125 121 122 122 124 123 123 123 122 119 117 119 120 117 120 122 121 123 129 136 135 137 145 150 155 150 137 125 128 135 131 95 84 92 104 106 117 145
104 108 111 113 116 119 119 118 119 123 124 122 123 122 120 121 122 120 118 118 119 121 121 125 132 132 136 146 152 149 148 143 143 146 127 111 106 95 102 116 117 136 152
108 114 114 114 113 117 121 122 121 124 125 123 121 120 118 118 120 117 118 121 121 124 126 132 138 142 144 147 152 154 160 156 155 136 118 114 116 110 112 123 133 156 165
99 114 120 114 113 111 114 119 121 121 125 122 118 116 116 120 119 114 119 122 122 124 131 134 134 142 146 147 161 167 164 165 158 146 135 127 120 113 130 139 147 166 184
89 108 118 114 112 107 107 110 117 118 121 121 116 116 115 121 121 120 122 123 125 123 127 131 133 137 144 149 154 179 176 171 166 164 162 151 141 144 161 177 182 189 191
88 102 110 109 111 108 105 107 113 117 118 116 114 115 116 120 123 123 121 125 127 123 122 128 133 136 141 150 152 167 160 164 164 171 181 177 176 182 198 211 218 214 212
88 96 103 106 107 101 100 100 104 113 119 114 113 116 115 115 113 117 118 115 120 126 130 132 135 133 130 143 152 153 153 157 162 177 192 193 203 216 226 237 247 237 228
91 95 101 104 102 101 101 102 98 102 106 108 109 112 113 113 111 110 112 114 115 125 134 135 134 143 136 139 148 154 158 153 155 179 196 205 219 236 245 253 258 254 248
93 95 98 101 99 94 94 101 101 96 97 101 105 104 105 108 112 111 112 115 110 112 121 130 132 138 143 143 146 151 157 168 173 185 195 211 225 231 254 268 275 268 261
94 95 93 97 98 93 89 94 101 97 96 96 100 99 97 97 106 109 108 100 97 100 106 120 124 134 141 143 138 130 148 181 187 189 200 225 238 245 262 273 282 285 271
91 90 89 94 96 95 91 91 98 95 92 93 96 95 88 87 93 95 90 92 92 89 93 95 97 108 100 99 106 119 141 164 210 215 231 243 248 253 267 271 277 281 283
85 87 88 90 89 91 92 94 98 89 82 83 95 102 95 91 93 90 89 91 89 87 89 86 88 94 92 90 93 106 122 248 233 241 246 250 256 266 276 272 270 270 280
84 88 87 88 89 90 93 96 95 85 76 75 84 92 94 92 94 90 82 88 88 89 90 86 89 93 98 86 83 88 42 309 305 295 273 276 271 273 281 286 281 286 293
83 85 84 88 90 92 92 93 92 85 76 71 77 81 84 85 91 101 86 83 80 82 87 78 91 90 98 77 18 328 301 279 288 302 299 289 289 288 286 292 295 289 289
76 79 76 79 86 92 93 88 89 84 78 77 79 76 77 72 69 82 94 95 81 94 52 6 30 35 300 283 279 279 276 279 283 289 296 300 295 293 287 284 286 284 285
58 64 66 71 77 83 81 77 79 74 69 62 56 53 49 43 29 28 29 359 285 275 313 313 302 311 300 286 272 267 269 280 283 285 291 294 296 292 287 284 281 280 282
35 44 59 59 66 69 64 63 61 57 45 31 10 358 350 334 328 330 326 307 293 290 297 297 296 298 297 284 278 274 274 278 282 281 283 285 286 284 282 280 280 279 279
5 10 24 31 39 35 28 31 37 30 12 354 333 324 317 314 306 303 310 309 300 292 285 283 285 287 288 283 280 277 275 282 289 285 283 284 285 285 287 282 280 279 279
316 305 286 306 309 315 326 334 348 353 348 342 333 322 315 312 303 297 299 299 298 292 286 286 288 286 284 282 281 280 281 284 289 290 288 289 290 289 290 285 281 280 281
298 294 277 276 282 283 294 304 314 318 323 326 329 327 320 312 304 295 294 293 292 289 288 287 290 287 281 283 287 286 286 287 286 286 288 289 290 288 289 288 286 285 283
276 286 286 281 289 292 296 302 306 308 313 318 321 322 323 318 307 296 290 289 290 291 290 288 287 284 282 282 286 289 287 288 287 287 289 289 289 289 288 288 289 291 289
272 276 276 276 283 295 299 300 303 303 306 310 309 308 310 309 306 300 295 293 293 294 293 291 288 286 284 283 285 288 288 289 288 288 288 289 288 287 288 289 289 291 292
272 272 271 273 273 278 286 291 296 299 302 306 305 304 307 308 306 303 303 302 297 295 296 293 290 288 286 285 286 288 290 289 289 288 286 286 285 284 285 287 287 289 290
Height
5887 5887 5886 5887 5887 5887 5887 5888 5888 5889 5889 5890 5890 5891 5892 5892 5893 5893 5893 5894 5894 5895 5895 5896 5896 5897 5897 5897 5898 5898 5898 5899 5899 5899 5899 5899 5899 5899 5898 5898 5898 5898 5898
5888 5888 5888 5888 5888 5888 5888 5889 5889 5890 5890 5891 5891 5892 5893 5893 5894 5894 5894 5895 5895 5896 5896 5897 5897 5897 5898 5898 5899 5899 5899 5899 5900 5900 5900 5900 5900 5900 5899 5899 5899 5899 5899
5889 5889 5889 5889 5889 5889 5890 5890 5891 5891 5891 5892 5892 5893 5894 5894 5895 5895 5896 5896 5896 5897 5897 5897 5898 5898 5898 5899 5899 5900 5900 5900 5900 5900 5900 5900 5900 5900 5900 5900 5900 5900 5900
5890 5890 5890 5890 5890 5891 5891 5891 5891 5892 5892 5893 5894 5894 5895 5895 5896 5896 5897 5897 5897 5898 5898 5898 5898 5898 5899 5898 5900 5900 5900 5900 5900 5901 5901 5900 5900 5900 5901 5900 5900 5900 5900
5891 5891 5891 5891 5892 5892 5892 5892 5892 5892 5893 5894 5895 5895 5896 5896 5896 5897 5897 5898 5898 5898 5898 5899 5899 5899 5900 5900 5900 5900 5900 5900 5901 5901 5901 5901 5901 5901 5901 5901 5901 5901 5901
5892 5892 5892 5893 5893 5893 5893 5893 5893 5893 5894 5895 5896 5896 5896 5896 5897 5897 5898 5898 5899 5899 5899 5899 5899 5900 5900 5900 5901 5901 5901 5901 5901 5901 5902 5902 5902 5901 5902 5901 5901 5901 5901
5892 5892 5893 5894 5894 5894 5894 5894 5895 5895 5895 5896 5896 5897 5897 5897 5897 5898 5898 5899 5899 5899 5899 5900 5900 5900 5900 5901 5900 5901 5901 5901 5901 5902 5902 5902 5902 5902 5902 5902 5902 5902 5902
5892 5892 5893 5895 5896 5896 5896 5896 5896 5896 5896 5897 5897 5898 5898 5898 5898 5899 5899 5899 5900 5900 5900 5900 5900 5901 5901 5901 5901 5901 5901 5901 5902 5902 5902 5902 5902 5902 5902 5902 5902 5902 5902
5895 5894 5896 5897 5897 5898 5897 5897 5897 5897 5898 5898 5899 5899 5899 5899 5899 5899 5900 5900 5900 5900 5901 5901 5901 5901 5901 5901 5901 5901 5901 5902 5902 5902 5902 5902 5902 5902 5902 5902 5902 5902 5902
5898 5898 5899 5899 5899 5899 5899 5899 5898 5898 5898 5899 5899 5899 5899 5899 5900 5900 5900 5900 5900 5900 5901 5901 5902 5902 5902 5902 5902 5901 5902 5902 5902 5902 5902 5902 5902 5902 5902 5902 5902 5901 5902
5901 5901 5901 5901 5901 5901 5900 5900 5900 5900 5900 5900 5900 5900 5900 5900 5900 5901 5901 5901 5901 5901 5901 5902 5902 5902 5902 5902 5902 5902 5902 5902 5902 5902 5902 5902 5902 5902 5901 5901 5901 5901 5901
5904 5903 5903 5903 5902 5902 5902 5902 5902 5901 5901 5901 5901 5901 5901 5901 5901 5901 5901 5901 5901 5901 5902 5902 5902 5902 5902 5902 5902 5902 5902 5902 5902 5902 5902 5902 5902 5901 5901 5901 5901 5901 5900
5906 5905 5905 5904 5904 5904 5903 5903 5903 5903 5903 5903 5903 5902 5902 5902 5902 5902 5902 5902 5902 5902 5902 5902 5902 5902 5902 5902 5902 5902 5902 5902 5902 5901 5901 5901 5901 5901 5901 5901 5900 5900 5899
5908 5907 5907 5906 5906 5905 5905 5905 5904 5904 5904 5904 5904 5904 5903 5903 5903 5902 5902 5903 5903 5902 5902 5902 5902 5902 5902 5902 5902 5902 5902 5902 5902 5901 5901 5901 5901 5901 5900 5900 5900 5899 5899
5910 5909 5908 5908 5907 5907 5906 5906 5906 5906 5905 5905 5904 5904 5904 5904 5904 5904 5904 5904 5903 5903 5903 5903 5903 5903 5903 5902 5902 5902 5902 5901 5901 5901 5901 5901 5900 5900 5900 5899 5899 5899 5898
5911 5911 5910 5910 5909 5908 5908 5907 5907 5907 5906 5906 5906 5906 5905 5905 5905 5905 5905 5904 5904 5904 5904 5904 5904 5903 5903 5903 5902 5902 5902 5901 5901 5901 5901 5900 5900 5900 5899 5899 5898 5898 5898
5913 5912 5912 5911 5910 5910 5909 5909 5908 5908 5907 5907 5907 5906 5906 5906 5905 5905 5905 5905 5905 5905 5904 5904 5904 5903 5903 5903 5902 5902 5902 5901 5901 5900 5900 5900 5899 5899 5898 5898 5897 5897 5897
5914 5914 5913 5912 5912 5911 5910 5910 5909 5909 5908 5908 5907 5907 5907 5906 5906 5906 5905 5905 5905 5905 5904 5904 5904 5903 5903 5903 5902 5902 5901 5901 5900 5900 5899 5899 5898 5898 5897 5897 5897 5896 5896
5915 5914 5914 5913 5912 5912 5911 5911 5910 5910 5909 5909 5908 5908 5907 5907 5906 5906 5906 5905 5905 5904 5904 5904 5904 5903 5903 5902 5901 5901 5901 5900 5900 5899 5899 5898 5897 5897 5896 5896 5896 5895 5895
5916 5915 5914 5914 5913 5912 5912 5911 5910 5910 5909 5909 5908 5908 5907 5906 5906 5906 5905 5905 5904 5904 5904 5903 5903 5903 5902 5901 5901 5900 5900 5899 5899 5898 5898 5897 5896 5896 5895 5894 5894 5893 5893
5916 5915 5915 5914 5913 5913 5912 5911 5911 5910 5909 5909 5908 5907 5907 5906 5905 5905 5905 5904 5904 5903 5903 5902 5902 5902 5901 5900 5900 5899 5899 5898 5898 5897 5896 5895 5894 5894 5893 5892 5891 5891 5890
5916 5915 5915 5914 5913 5913 5912 5911 5910 5910 5909 5908 5907 5906 5906 5905 5904 5904 5904 5903 5903 5902 5902 5901 5901 5900 5900 5899 5898 5898 5897 5897 5896 5895 5894 5893 5892 5891 5890 5889 5888 5888 5887
5915 5915 5914 5914 5913 5912 5911 5911 5910 5909 5908 5907 5906 5905 5905 5904 5903 5903 5902 5902 5901 5901 5900 5900 5899 5898 5898 5897 5896 5896 5895 5895 5894 5893 5892 5891 5890 5888 5888 5887 5886 5885 5884
5915 5914 5913 5913 5912 5912 5911 5910 5909 5908 5907 5906 5905 5904 5903 5902 5902 5901 5901 5900 5900 5899 5899 5898 5897 5896 5896 5895 5894 5893 5893 5892 5891 5890 5889 5888 5887 5886 5884 5884 5883 5882 5881
5914 5913 5912 5912 5911 5911 5910 5909 5908 5907 5906 5905 5904 5903 5902 5901 5900 5900 5899 5899 5898 5897 5896 5896 5895 5894 5893 5892 5891 5890 5889 5888 5887 5886 5885 5884 5883 5882 5881 5880 5879 5878 5877
5912 5911 5911 5910 5910 5909 5908 5907 5906 5905 5904 5904 5902 5901 5900 5899 5898 5898 5897 5896 5895 5895 5894 5893 5892 5891 5890 5889 5888 5887 5886 5885 5884 5883 5881 5880 5879 5878 5877 5876 5875 5874 5873